SCP
0 0 0 0 1 1 1 1 1 0 0 0 0 0 0 0 0 0 0 0 0 0 0 0 0 0 0 0 0 0 0 0
0 0 0 0 1 1 1 1 0 0 0 0 0 0 0 0 0 0 0 0 0 0 0 0 0 0 0 0 0 0 0 0
0 0 0 0 0 1 1 0 0 0 0 0 0 0 0 0 0 0 0 0 0 0 0 0 0 0 0 0 0 0 1 0
0 0 0 0 0 0 0 0 0 0 0 0 0 0 0 -0 0 0 0 -0 0 0 0 0 0 0 0 1 0 0 1 0
0 0 0 0 0 0 0 0 0 0 0 0 0 0 0 0 0 0 0 0 0 0 0 0 0 0 0 0 0 0 1 0
0 0 0 0 0 0 0 0 0 0 0 0 0 0 0 0 0 0 0 0 0 0 0 0 0 0 0 0 0 1 1 1
0 0 0 0 0 0 0 0 0 0 0 0 0 0 0 0 0 0 0 0 0 0 0 0 0 0 0 0 0 0 1 1
0 0 0 0 0 0 0 0 0 0 0 0 0 0 0 0 0 0 0 0 0 0 0 0 0 0 0 0 1 0 1 1
0 0 0 0 0 0 0 0 0 0 0 0 0 0 0 -0 -0 0 0 0 0 0 0 0 0 1 0 0 1 1 1 1
0 0 0 0 0 0 0 0 0 0 0 0 0 0 0 0 -0 -0 0 0 0 0 0 0 0 0 0 0 1 1 1 1
0 0 0 0 0 0 0 0 0 0 0 0 0 0 0 -0 -0 0 0 0 0 0 0 0 0 1 0 1 1 1 1 1
0 0 0 0 0 0 0 0 0 0 0 0 0 0 -0 -0 -0 0 0 0 0 0 0 0 0 1 1 1 0 1 1 1
0 0 0 0 0 0 0 0 0 0 0 0 0 0 -0 -0 -0 0 0 0 0 0 0 0 0 0 0 1 1 1 1 1
0 0 0 0 0 0 0 0 0 0 0 0 0 0 -0 -0 -0 0 0 0 0 0 0 0 0 0 0 1 1 1 1 1
0 0 0 0 0 0 0 0 0 0 0 0 -0 -0 -0 -0 0 0 0 0 0 0 0 0 0 0 0 0 1 1 0 0
0 0 0 0 0 0 0 0 0 0 0 0 0 0 -0 -0 -0 0 0 0 0 0 0 0 0 0 0 1 1 0 0 0
0 0 0 0 0 0 0 0 0 0 0 0 0 0 0 -0 -0 -0 0 0 0 0 0 0 0 1 1 1 0 0 0 0
0 0 0 0 0 0 0 0 0 0 0 0 0 0 0 0 -0 -0 -0 -0 0 0 0 0 0 0 0 1 1 1 0 0
0 0 0 0 0 0 0 0 0 0 0 0 0 0 0 0 0 -0 0 0 0 0 0 0 0 0 1 1 1 1 0 0
Wind_Speed_500mb
22 26 26 27 29 33 35 38 42 44 44 47 47 45 47 44 42 41 39 43 41 34 27 31 26 28 29 28 31 34 33 32
24 28 30 32 34 35 38 40 41 44 48 50 50 50 49 48 47 40 40 42 43 40 31 26 33 29 32 29 31 34 33 33
26 27 26 25 27 31 40 41 44 48 53 56 57 56 55 51 53 46 42 40 41 45 40 31 38 35 30 31 31 35 32 35
30 32 32 33 35 35 38 41 46 53 62 64 58 56 52 53 54 48 45 39 38 37 41 36 31 42 34 35 34 36 35 33
34 34 35 32 32 34 37 44 52 53 52 50 50 49 52 50 50 48 51 49 42 34 34 37 33 43 39 39 35 35 36 34
29 29 30 32 30 32 36 40 40 41 40 38 37 36 38 45 51 48 45 50 46 44 33 37 34 42 42 40 36 35 37 38
28 30 32 31 31 30 34 34 34 35 25 20 24 30 37 45 52 54 57 49 44 40 35 37 34 42 41 40 34 35 39 39
30 31 29 31 29 29 34 31 33 33 24 21 25 24 20 25 35 36 50 55 55 46 33 34 37 41 42 40 33 32 41 39
31 29 28 28 28 29 32 26 32 30 26 24 18 14 13 15 15 19 34 44 46 41 40 37 37 40 43 41 38 40 42 42
28 25 29 30 28 31 24 28 27 24 21 16 12 11 10 11 4 6 16 28 34 36 34 35 37 44 44 40 41 41 43 44
24 25 30 29 31 30 24 26 24 22 19 15 8 6 4 8 10 8 14 23 28 29 30 35 42 46 44 44 43 44 46 44
22 26 31 31 32 29 26 25 22 20 15 14 7 3 3 4 5 5 10 17 23 27 31 35 39 39 39 41 41 47 48 47
19 23 31 32 30 26 28 23 20 18 14 10 9 7 6 5 5 7 12 18 21 28 34 37 40 40 41 43 40 47 52 51
17 20 28 31 32 29 25 22 17 16 13 11 10 11 14 16 14 14 17 21 25 30 34 37 39 38 41 41 40 50 54 52
16 15 23 28 34 32 24 21 16 15 18 16 10 10 9 12 13 17 23 25 28 33 36 37 38 37 42 45 51 55 59 53
14 10 17 23 29 31 23 19 15 17 17 10 6 7 15 14 16 20 25 26 31 35 37 38 41 45 49 56 58 54 51 53
10 7 14 21 25 27 23 23 24 22 19 16 14 9 19 19 19 22 23 27 26 30 37 42 49 57 55 60 67 62 46 50
5 5 13 20 21 23 20 15 27 26 22 25 34 24 30 23 8 14 18 27 25 32 43 49 51 55 67 67 63 41 37 26
3 5 11 18 18 23 27 24 26 29 29 24 32 38 39 39 36 24 17 24 30 40 46 50 50 61 62 65 53 48 39 61
Wind_Direction_500mb
304 306 297 289 273 271 268 269 273 277 277 277 279 279 281 276 271 269 250 240 238 242 240 218 231 242 219 222 208 209 210 213
294 284 284 284 272 272 275 282 278 279 280 278 276 273 269 267 263 263 247 242 238 240 241 239 211 231 232 222 211 209 209 209
292 285 284 277 272 274 276 278 279 278 279 280 279 273 265 260 263 253 246 239 240 242 243 236 215 220 227 214 216 208 207 213
299 300 299 296 292 284 280 277 279 280 279 280 278 273 266 258 258 252 238 236 239 247 242 233 226 213 218 211 215 208 205 211
307 308 302 301 298 288 281 284 285 286 286 281 283 278 269 260 244 244 237 237 239 243 241 226 222 218 216 211 210 208 200 202
311 310 311 307 300 294 299 303 304 305 297 287 281 277 270 261 253 248 245 236 234 236 242 225 222 219 215 209 206 206 196 197
326 327 326 319 309 305 314 315 325 329 314 295 286 284 272 266 264 258 244 240 232 231 241 230 219 217 213 205 202 202 196 193
334 335 326 319 317 312 316 321 325 330 324 310 305 306 287 274 267 258 235 232 237 236 237 220 223 213 204 200 196 198 190 192
336 336 327 331 332 329 327 329 325 321 330 321 321 332 321 295 271 253 219 223 233 232 217 216 212 204 198 197 195 197 188 185
342 340 337 338 336 336 338 335 333 330 323 325 326 349 357 17 17 190 181 196 202 202 208 206 202 192 194 192 192 190 186 182
351 344 348 351 348 346 341 340 341 338 340 336 320 329 45 71 81 120 158 173 182 194 196 197 194 187 189 188 188 187 182 181
355 345 353 353 350 350 349 346 343 342 344 357 341 314 157 132 128 140 170 182 186 185 185 185 184 183 187 186 188 184 177 179
356 349 356 357 355 353 354 348 347 339 329 322 313 283 249 263 246 212 196 194 187 181 179 177 177 179 183 187 185 178 178 182
353 353 4 9 2 359 353 351 344 339 338 338 323 300 279 265 254 230 206 193 186 180 181 179 179 180 180 176 175 173 176 177
351 348 4 14 11 12 5 2 355 345 346 355 345 317 281 253 223 201 197 191 188 186 182 179 178 180 177 164 167 175 176 177
352 349 2 12 13 13 13 10 10 357 8 18 342 335 271 214 191 187 188 188 189 185 185 180 175 169 166 167 173 170 171 173
352 0 15 22 18 17 17 15 15 19 44 52 30 5 42 166 182 179 185 188 185 182 182 174 169 163 158 174 162 148 124 147
4 32 46 32 25 26 20 27 34 39 55 70 59 66 88 90 147 159 174 188 181 179 169 165 169 167 166 173 160 156 132 136
145 97 59 43 37 40 40 38 48 47 66 76 64 60 67 73 80 114 109 137 164 155 158 161 166 165 166 165 157 150 156 151
Wind_Speed_850mb
22 26 26 27 29 33 35 38 42 44 44 47 47 45 47 44 42 41 39 43 41 34 27 31 26 28 29 28 31 34 33 32
24 28 30 32 34 35 38 40 41 44 48 50 50 50 49 48 47 40 40 42 43 40 31 26 33 29 32 29 31 34 33 33
26 27 26 25 27 31 40 41 44 48 53 56 57 56 55 51 53 46 42 40 41 45 40 31 38 35 30 31 31 35 32 35
30 32 32 33 35 35 38 41 46 53 62 64 58 56 52 53 54 48 45 39 38 37 41 36 31 42 34 35 34 36 35 33
34 34 35 32 32 34 37 44 52 53 52 50 50 49 52 50 50 48 51 49 42 34 34 37 33 43 39 39 35 35 36 34
29 29 30 32 30 32 36 40 40 41 40 38 37 36 38 45 51 48 45 50 46 44 33 37 34 42 42 40 36 35 37 38
28 30 32 31 31 30 34 34 34 35 25 20 24 30 37 45 52 54 57 49 44 40 35 37 34 42 41 40 34 35 39 39
30 31 29 31 29 29 34 31 33 33 24 21 25 24 20 25 35 36 50 55 55 46 33 34 37 41 42 40 33 32 41 39
31 29 28 28 28 29 32 26 32 30 26 24 18 14 13 15 15 19 34 44 46 41 40 37 37 40 43 41 38 40 42 42
28 25 29 30 28 31 24 28 27 24 21 16 12 11 10 11 4 6 16 28 34 36 34 35 37 44 44 40 41 41 43 44
24 25 30 29 31 30 24 26 24 22 19 15 8 6 4 8 10 8 14 23 28 29 30 35 42 46 44 44 43 44 46 44
22 26 31 31 32 29 26 25 22 20 15 14 7 3 3 4 5 5 10 17 23 27 31 35 39 39 39 41 41 47 48 47
19 23 31 32 30 26 28 23 20 18 14 10 9 7 6 5 5 7 12 18 21 28 34 37 40 40 41 43 40 47 52 51
17 20 28 31 32 29 25 22 17 16 13 11 10 11 14 16 14 14 17 21 25 30 34 37 39 38 41 41 40 50 54 52
16 15 23 28 34 32 24 21 16 15 18 16 10 10 9 12 13 17 23 25 28 33 36 37 38 37 42 45 51 55 59 53
14 10 17 23 29 31 23 19 15 17 17 10 6 7 15 14 16 20 25 26 31 35 37 38 41 45 49 56 58 54 51 53
10 7 14 21 25 27 23 23 24 22 19 16 14 9 19 19 19 22 23 27 26 30 37 42 49 57 55 60 67 62 46 50
5 5 13 20 21 23 20 15 27 26 22 25 34 24 30 23 8 14 18 27 25 32 43 49 51 55 67 67 63 41 37 26
3 5 11 18 18 23 27 24 26 29 29 24 32 38 39 39 36 24 17 24 30 40 46 50 50 61 62 65 53 48 39 61
Wind_Direction_850mb
304 306 297 289 273 271 268 269 273 277 277 277 279 279 281 276 271 269 250 240 238 242 240 218 231 242 219 222 208 209 210 213
294 284 284 284 272 272 275 282 278 279 280 278 276 273 269 267 263 263 247 242 238 240 241 239 211 231 232 222 211 209 209 209
292 285 284 277 272 274 276 278 279 278 279 280 279 273 265 260 263 253 246 239 240 242 243 236 215 220 227 214 216 208 207 213
299 300 299 296 292 284 280 277 279 280 279 280 278 273 266 258 258 252 238 236 239 247 242 233 226 213 218 211 215 208 205 211
307 308 302 301 298 288 281 284 285 286 286 281 283 278 269 260 244 244 237 237 239 243 241 226 222 218 216 211 210 208 200 202
311 310 311 307 300 294 299 303 304 305 297 287 281 277 270 261 253 248 245 236 234 236 242 225 222 219 215 209 206 206 196 197
326 327 326 319 309 305 314 315 325 329 314 295 286 284 272 266 264 258 244 240 232 231 241 230 219 217 213 205 202 202 196 193
334 335 326 319 317 312 316 321 325 330 324 310 305 306 287 274 267 258 235 232 237 236 237 220 223 213 204 200 196 198 190 192
336 336 327 331 332 329 327 329 325 321 330 321 321 332 321 295 271 253 219 223 233 232 217 216 212 204 198 197 195 197 188 185
342 340 337 338 336 336 338 335 333 330 323 325 326 349 357 17 17 190 181 196 202 202 208 206 202 192 194 192 192 190 186 182
351 344 348 351 348 346 341 340 341 338 340 336 320 329 45 71 81 120 158 173 182 194 196 197 194 187 189 188 188 187 182 181
355 345 353 353 350 350 349 346 343 342 344 357 341 314 157 132 128 140 170 182 186 185 185 185 184 183 187 186 188 184 177 179
356 349 356 357 355 353 354 348 347 339 329 322 313 283 249 263 246 212 196 194 187 181 179 177 177 179 183 187 185 178 178 182
353 353 4 9 2 359 353 351 344 339 338 338 323 300 279 265 254 230 206 193 186 180 181 179 179 180 180 176 175 173 176 177
351 348 4 14 11 12 5 2 355 345 346 355 345 317 281 253 223 201 197 191 188 186 182 179 178 180 177 164 167 175 176 177
352 349 2 12 13 13 13 10 10 357 8 18 342 335 271 214 191 187 188 188 189 185 185 180 175 169 166 167 173 170 171 173
352 0 15 22 18 17 17 15 15 19 44 52 30 5 42 166 182 179 185 188 185 182 182 174 169 163 158 174 162 148 124 147
4 32 46 32 25 26 20 27 34 39 55 70 59 66 88 90 147 159 174 188 181 179 169 165 169 167 166 173 160 156 132 136
145 97 59 43 37 40 40 38 48 47 66 76 64 60 67 73 80 114 109 137 164 155 158 161 166 165 166 165 157 150 156 151